Weather History for LFKC - December, 2012

Change the Weather History Date:

Monday, December 3, 2012

  Actual Average Record
Temperature  
Mean Temperature 46 °F -  
Max Temperature 57 °F 55 °F 71 °F (2003)
Min Temperature 35 °F 44 °F 35 °F (2012)
Degree Days  
Heating Degree Days 19    
Moisture  
Dew Point 28 °F    
Average Humidity 45    
Maximum Humidity 75    
Minimum Humidity 25    
Precipitation  
Precipitation 0.00 in - - ()
Sea Level Pressure  
Sea Level Pressure 30.03 in    
Wind  
Wind Speed 7 mph ()    
Max Wind Speed 18 mph    
Max Gust Speed 30 mph    
Averages and records for this station are not official NWS values.
T = Trace of Precipitation, MM = Missing Value Source: Averaged Metar Reports

Daily Weather History Graph

Daily Weather History Graph

Search for Another Location

Airport or City:

Trip Planner

Search our weather history database for the weather conditions in past years. The results will help you decide how hot, cold, wet, or windy it might be!

Date:

Astronomy

Dec. 03, 2012 Rise Set
Actual Time 7:37 AM CET 4:52 PM CET
Civil Twilight 7:05 AM CET 5:23 PM CET
Nautical Twilight 6:30 AM CET 5:58 PM CET
Astronomical Twilight 5:56 AM CET 6:32 PM CET
Moon 9:25 PM CET (12/3) 10:48 AM CET (12/3)
Length of Visible Light 10h 18m
Length of Day
9h 14m
Waning Gibbous, 80% of the Moon is Illuminated
Dec 3
Waning Gibbous
Dec 6
Last Quarter
Dec 13
New
Dec 20
First Quarter
Dec 28
Full

Hourly Weather History & Observations

Time (CET) Temp. Windchill Dew Point Humidity Pressure Visibility Wind Dir Wind Speed Gust Speed Precip Events Conditions
7:00 AM 37.4 °F 32.1 °F 28.4 °F 70% 30.01 in - SSW 6.9 mph - N/A   Clear
7:30 AM 35.6 °F 30.7 °F 28.4 °F 75% 30.04 in - South 5.8 mph - N/A   Clear
8:00 AM 37.4 °F 31.4 °F 28.4 °F 70% 30.04 in - SSW 8.1 mph - N/A   Clear
8:30 AM 39.2 °F 35.0 °F 28.4 °F 65% 30.04 in - South 5.8 mph - N/A   Clear
9:00 AM 42.8 °F 37.5 °F 30.2 °F 61% 30.06 in - SSW 9.2 mph - N/A   Clear
9:30 AM 46.4 °F 43.5 °F 30.2 °F 53% 30.06 in - SSW 5.8 mph - N/A   Clear
10:00 AM 50.0 °F - 28.4 °F 43% 30.06 in - SSW 6.9 mph - N/A   Clear
10:30 AM 51.8 °F - 30.2 °F 44% 30.06 in - SSW 4.6 mph - N/A   Clear
11:00 AM 53.6 °F - 19.4 °F 26% 30.06 in - Variable 3.5 mph - N/A   Clear
11:30 AM - - - N/A% 30.06 in - SSE 4.6 mph - N/A   Clear
12:00 PM 55.4 °F - 21.2 °F 26% 30.06 in - Variable 3.5 mph - N/A   Clear
12:30 PM 55.4 °F - 19.4 °F 25% 30.06 in - South 4.6 mph - N/A   Clear
1:00 PM 57.2 °F - 24.8 °F 29% 30.04 in - SSW 5.8 mph - N/A   Clear
1:30 PM 57.2 °F - 24.8 °F 29% 30.04 in - SW 5.8 mph - N/A   Clear
2:00 PM 55.4 °F - 24.8 °F 31% 30.01 in - SW 6.9 mph - N/A   Clear
2:30 PM 55.4 °F - 26.6 °F 33% 30.01 in - SW 8.1 mph - N/A   Clear
3:00 PM 55.4 °F - 28.4 °F 36% 30.01 in - SSW 9.2 mph - N/A   Clear
3:30 PM 55.4 °F - 30.2 °F 38% 30.01 in - SSW 11.5 mph - N/A   Clear
4:00 PM 53.6 °F - 32.0 °F 44% 29.98 in - SSW 13.8 mph 28.8 mph N/A   Clear
4:30 PM 51.8 °F - 32.0 °F 47% 30.01 in - SSW 17.3 mph - N/A   Clear
5:00 PM 51.8 °F - 32.0 °F 47% 30.01 in - SSW 18.4 mph 29.9 mph N/A   Clear
5:30 PM 50.0 °F - 30.2 °F 47% 30.01 in - SSW 17.3 mph 29.9 mph N/A   Clear